Wind_Speed
52 53 54 55 55 56 57 58 59 58 57 56 55 55 56 57 57 58 57 57 57 56 56 56 57 58 59 59 58 57 56 55 55 55 55 54 53 53
53 55 55 56 57 57 57 58 58 59 58 56 55 55 56 56 57 57 57 57 56 56 56 56 57 58 58 58 58 57 56 55 55 55 54 54 54 55
55 56 56 57 57 57 57 57 58 59 59 56 55 55 56 57 57 57 57 57 56 56 57 57 58 58 58 58 57 57 56 56 55 55 55 55 55 55
56 57 57 57 58 58 58 58 58 58 58 57 55 56 57 57 57 56 56 57 56 56 56 56 57 57 57 57 56 55 54 54 55 55 55 55 55 54
57 57 57 57 58 58 58 57 57 57 58 58 57 56 55 55 56 56 56 54 55 55 54 54 55 55 54 54 54 53 53 53 54 54 55 55 54 53
56 56 56 56 57 57 57 57 57 57 57 57 57 55 54 54 55 55 53 52 52 52 52 52 52 52 52 52 53 53 53 53 53 54 54 54 54 53
55 55 55 55 56 56 56 56 56 56 56 55 55 54 52 53 53 53 53 51 50 49 50 50 50 49 49 50 51 51 51 51 52 52 53 53 53 53
54 54 54 54 55 55 55 55 55 55 54 54 54 53 52 52 52 51 51 49 48 47 48 47 47 47 46 46 46 47 47 48 48 49 50 50 50 50
53 53 54 54 54 54 53 52 53 54 54 54 53 52 52 51 51 49 48 47 46 45 45 44 44 44 43 43 43 43 44 44 44 45 47 46 46 46
52 52 52 51 52 52 51 51 51 52 52 52 52 51 51 49 48 46 45 44 43 42 42 40 38 39 41 40 40 41 41 42 42 43 43 43 42 42
50 50 50 50 51 52 52 51 50 51 51 51 50 49 48 47 46 45 44 43 41 39 39 37 36 37 37 37 38 38 38 38 39 40 41 40 39 38
48 48 49 49 49 49 50 50 50 50 49 49 48 47 45 43 42 42 41 40 38 37 36 35 34 34 33 33 34 34 35 35 35 35 35 34 34 35
46 45 45 45 45 46 47 48 48 48 47 46 44 42 40 39 38 38 38 37 36 34 33 33 32 31 30 29 29 30 30 30 30 30 29 29 29 30
42 42 43 43 43 44 44 44 45 45 43 41 40 38 37 37 36 36 35 34 33 31 30 29 28 27 26 25 25 24 25 26 26 26 26 25 26 27
41 42 42 43 43 43 43 43 43 41 40 39 37 36 36 36 34 33 32 30 29 29 28 27 26 25 25 24 23 22 22 23 23 24 23 22 23 24
41 42 43 43 43 42 42 42 41 39 38 38 36 34 33 32 30 29 28 28 27 26 26 25 24 24 23 23 22 21 21 21 20 20 20 20 20 21
43 43 43 42 41 41 40 38 38 38 36 35 33 31 30 29 27 26 25 25 24 23 23 23 22 21 20 20 20 19 19 19 18 18 18 17 17 17
41 40 39 39 38 37 36 36 35 35 33 32 31 29 27 26 25 24 23 23 22 21 21 21 20 20 19 18 17 17 17 16 15 14 14 14 14 14
38 37 36 35 35 34 33 33 32 32 30 28 27 25 24 23 22 22 22 21 20 19 19 18 18 17 17 16 15 14 13 12 12 12 12 13 12 13
35 34 33 32 31 30 30 29 29 28 26 25 23 22 21 20 19 19 18 18 16 15 15 15 14 14 14 13 13 13 13 12 12 12 12 12 11 11
32 31 30 30 29 28 27 26 25 23 22 20 20 19 18 17 16 16 15 14 14 13 13 13 12 13 13 12 12 12 12 12 11 12 12 12 11 11
29 28 27 27 26 25 24 23 21 19 18 17 16 16 16 15 14 13 13 13 13 13 12 12 12 12 12 11 11 11 11 11 10 10 10 10 11 10
26 26 25 24 23 23 22 20 19 17 16 15 14 14 13 13 12 12 12 12 12 12 12 11 11 11 11 11 11 11 11 11 10 9 9 9 9 9
Wind_Direction
283 284 285 285 286 286 286 286 286 286 284 284 283 282 281 280 279 278 278 276 275 274 274 273 272 272 272 271 271 271 269 268 267 267 267 267 268 269
283 284 285 286 286 287 286 286 287 287 286 285 283 282 281 280 280 279 278 276 275 274 273 272 272 273 272 272 271 270 270 268 267 267 267 267 267 267
284 285 286 286 286 286 286 286 286 287 287 287 285 284 283 282 281 281 279 277 276 275 274 272 272 273 273 272 271 271 270 268 267 266 265 265 266 266
285 285 286 286 286 286 286 286 286 286 287 287 286 284 283 283 282 281 280 278 277 275 275 274 273 272 272 271 271 271 270 269 267 266 265 265 265 266
285 285 286 286 286 286 286 286 286 286 287 287 287 285 284 283 283 282 280 278 277 276 275 274 273 273 272 270 270 270 270 269 268 267 266 265 265 266
285 285 286 286 286 286 286 287 287 287 287 287 287 286 285 284 284 282 280 279 278 277 275 275 273 273 273 272 270 269 269 269 267 266 266 266 266 266
286 286 286 286 286 287 287 288 288 288 288 288 288 287 287 286 285 283 282 280 278 277 275 273 272 273 273 273 272 271 271 270 268 267 266 266 266 265
286 286 286 287 287 287 288 288 289 289 289 288 288 288 288 287 286 284 282 280 277 276 276 274 272 273 273 272 270 270 271 270 269 268 267 266 265 265
286 287 287 287 287 288 288 288 288 289 290 289 289 289 288 288 286 284 281 280 279 277 276 274 273 272 272 271 270 269 269 270 269 268 266 265 264 263
287 288 288 287 288 288 288 288 289 290 290 291 291 290 289 287 286 283 281 279 278 276 275 275 272 272 272 270 270 270 270 270 269 267 265 264 264 263
288 288 289 288 288 288 288 289 289 290 290 291 291 289 288 287 284 282 281 279 277 275 274 276 273 273 272 271 269 270 270 269 267 267 265 264 264 263
289 289 289 289 290 290 290 290 290 290 290 290 289 288 287 285 283 282 281 280 278 276 273 274 273 273 271 271 271 270 268 267 267 266 264 263 263 261
289 289 289 290 291 292 292 292 292 291 291 290 289 287 284 283 281 281 281 280 279 278 275 273 271 272 274 273 270 268 266 264 265 265 265 264 262 260
290 290 290 290 292 293 293 293 293 293 292 291 289 286 284 282 281 279 278 277 277 276 275 273 271 271 275 274 270 266 264 263 263 264 265 265 262 260
290 292 292 292 293 293 293 293 293 293 293 291 289 285 284 283 280 278 276 273 275 273 272 271 269 270 274 273 269 266 262 260 261 263 263 264 262 261
290 292 292 293 293 293 293 293 292 292 292 291 288 286 283 280 278 277 276 272 272 270 268 267 267 268 272 271 267 264 261 260 260 262 262 263 261 258
290 291 292 291 290 290 291 292 293 292 291 290 288 286 282 278 276 274 272 269 270 267 262 264 265 268 270 269 263 261 259 254 256 261 259 258 255 253
291 291 292 291 291 291 290 291 292 291 290 288 287 283 280 277 274 272 270 268 267 265 263 261 261 262 263 263 260 258 253 250 252 256 255 253 252 253
291 291 292 292 293 292 292 292 292 292 290 287 283 280 278 277 274 270 268 266 265 261 257 255 256 256 254 251 250 253 249 247 246 249 250 249 248 250
290 290 291 291 293 293 292 292 292 291 288 285 281 278 277 276 271 268 266 263 258 252 247 248 251 249 247 242 239 240 243 244 243 245 246 246 247 247
290 289 289 291 292 292 292 291 291 289 287 284 280 277 273 269 268 267 261 254 247 243 242 243 243 241 240 239 235 234 236 240 243 244 244 245 245 246
290 290 290 291 291 290 290 289 288 287 283 281 279 276 272 268 264 259 255 246 242 241 241 238 234 235 238 237 231 230 235 238 238 240 241 245 244 243
289 290 291 291 291 290 289 288 285 282 278 276 276 276 272 267 259 253 250 245 241 242 242 238 235 233 234 231 228 229 231 231 231 236 240 241 240 239
Height
5669 5667 5665 5663 5660 5657 5654 5650 5647 5647 5649 5650 5646 5643 5639 5637 5636 5634 5633 5632 5631 5631 5631 5630 5630 5630 5630 5630 5631 5631 5632 5634 5635 5636 5638 5639 5640 5641
5656 5654 5651 5648 5645 5642 5639 5636 5632 5629 5630 5633 5630 5627 5624 5621 5619 5617 5616 5615 5615 5614 5614 5613 5613 5613 5613 5613 5614 5615 5616 5617 5618 5620 5621 5622 5624 5625
5642 5640 5637 5633 5630 5627 5624 5621 5618 5614 5612 5615 5614 5611 5607 5605 5603 5601 5599 5599 5598 5598 5597 5596 5596 5596 5596 5596 5597 5597 5598 5599 5601 5602 5603 5605 5607 5609
5628 5625 5622 5619 5616 5612 5609 5606 5603 5600 5597 5597 5597 5594 5591 5588 5586 5585 5583 5581 5581 5580 5579 5579 5578 5578 5578 5579 5579 5580 5581 5582 5583 5585 5587 5589 5591 5592
5613 5610 5607 5603 5601 5597 5594 5591 5588 5585 5581 5580 5580 5578 5575 5572 5569 5568 5567 5565 5563 5562 5562 5562 5561 5561 5561 5562 5562 5563 5564 5565 5566 5568 5569 5571 5573 5575
5598 5595 5592 5589 5585 5582 5579 5576 5573 5570 5566 5564 5563 5561 5559 5556 5553 5551 5551 5549 5548 5546 5545 5545 5545 5545 5545 5545 5546 5547 5547 5548 5549 5551 5552 5554 5556 5558
5584 5581 5577 5574 5570 5567 5564 5561 5557 5554 5551 5548 5546 5545 5543 5540 5538 5535 5534 5533 5533 5530 5530 5530 5530 5530 5530 5529 5529 5530 5530 5531 5532 5534 5535 5537 5539 5541
5569 5566 5563 5560 5556 5553 5549 5546 5542 5539 5536 5533 5531 5529 5527 5525 5522 5519 5517 5516 5517 5518 5514 5516 5515 5515 5515 5514 5514 5514 5514 5515 5516 5518 5519 5521 5523 5525
5554 5552 5549 5546 5542 5538 5535 5532 5528 5525 5521 5518 5516 5514 5512 5509 5506 5504 5502 5500 5501 5501 5499 5500 5501 5500 5500 5499 5499 5499 5500 5500 5502 5503 5504 5506 5508 5510
5541 5538 5534 5532 5528 5524 5522 5519 5515 5512 5508 5504 5501 5499 5496 5493 5490 5489 5487 5487 5487 5486 5484 5484 5486 5487 5487 5486 5486 5486 5486 5487 5488 5490 5491 5492 5494 5497
5527 5524 5521 5518 5515 5511 5508 5505 5502 5499 5494 5490 5487 5484 5481 5479 5476 5474 5474 5472 5473 5475 5473 5472 5473 5474 5475 5475 5474 5474 5474 5475 5476 5478 5479 5480 5482 5484
5515 5512 5508 5505 5501 5497 5494 5491 5488 5485 5481 5478 5475 5471 5468 5466 5464 5462 5461 5460 5460 5462 5463 5461 5461 5461 5463 5465 5464 5464 5464 5465 5466 5467 5468 5469 5471 5473
5502 5499 5496 5492 5489 5485 5481 5477 5474 5471 5468 5465 5462 5459 5457 5454 5453 5451 5450 5449 5449 5451 5452 5451 5451 5451 5451 5454 5455 5454 5455 5456 5457 5458 5459 5460 5461 5464
5490 5487 5484 5481 5477 5473 5469 5465 5461 5457 5454 5451 5449 5447 5446 5444 5443 5441 5441 5440 5440 5440 5441 5441 5441 5442 5442 5444 5445 5446 5447 5447 5448 5450 5451 5452 5453 5455
5478 5475 5472 5469 5466 5462 5458 5454 5450 5446 5443 5440 5438 5437 5435 5433 5432 5432 5431 5431 5431 5432 5432 5432 5433 5434 5434 5435 5437 5438 5439 5441 5441 5442 5444 5445 5447 5448
5467 5464 5461 5458 5454 5451 5447 5443 5439 5435 5432 5430 5428 5426 5425 5424 5423 5423 5423 5423 5423 5424 5424 5424 5425 5426 5427 5428 5429 5431 5432 5434 5436 5437 5437 5439 5440 5442
5456 5453 5450 5447 5443 5440 5436 5433 5429 5426 5423 5420 5418 5417 5416 5415 5415 5415 5415 5415 5416 5417 5418 5419 5419 5420 5421 5422 5423 5425 5426 5428 5430 5431 5432 5434 5436 5437
5444 5442 5439 5436 5432 5429 5426 5423 5420 5417 5414 5412 5410 5409 5408 5407 5407 5407 5407 5408 5409 5410 5411 5412 5413 5415 5416 5417 5418 5420 5422 5423 5425 5427 5428 5430 5432 5434
5433 5431 5428 5425 5422 5419 5417 5414 5411 5408 5406 5404 5403 5402 5401 5400 5400 5401 5401 5402 5403 5404 5405 5407 5408 5409 5411 5414 5415 5416 5417 5419 5421 5423 5425 5427 5429 5431
5423 5421 5418 5416 5413 5410 5408 5405 5403 5400 5398 5397 5396 5395 5395 5394 5394 5395 5395 5396 5397 5399 5401 5402 5404 5405 5407 5410 5412 5414 5414 5416 5418 5421 5422 5424 5425 5427
5414 5412 5410 5407 5405 5403 5400 5398 5395 5393 5392 5391 5390 5390 5389 5389 5390 5390 5390 5392 5393 5395 5397 5399 5400 5402 5404 5406 5408 5410 5412 5413 5415 5417 5419 5421 5423 5424
5406 5404 5402 5400 5397 5395 5393 5391 5389 5388 5387 5386 5385 5385 5385 5385 5385 5386 5387 5389 5390 5392 5394 5395 5397 5399 5401 5403 5405 5407 5409 5411 5412 5414 5416 5418 5420 5421
5398 5396 5394 5392 5390 5388 5387 5385 5384 5383 5382 5382 5381 5381 5381 5381 5382 5383 5384 5385 5387 5388 5390 5392 5394 5396 5398 5400 5402 5404 5406 5408 5410 5412 5413 5415 5416 5417